Wind_Speed
20 24 21 23 25 22 21 20 20 19 18 17 17 18 18 19 19 19 19 18 18 19 19 20 18 18 18 20 21 22 22 22 22 23 23 24 22 21 21 21 22 23 23
25 27 24 26 24 22 22 20 21 20 19 18 17 17 17 17 18 18 18 19 20 20 20 21 21 22 23 23 24 25 25 24 23 22 22 22 20 19 19 20 20 21 21
26 28 27 27 23 22 23 22 21 20 19 18 17 17 17 17 17 19 21 22 22 21 21 22 22 24 25 25 25 25 25 25 22 20 21 21 20 20 19 18 18 17 18
30 29 30 27 25 23 24 23 21 20 19 18 18 17 17 17 18 20 23 26 23 22 20 20 23 24 25 24 25 26 23 20 20 19 20 19 18 16 17 16 16 17 18
32 31 31 27 25 25 24 23 21 20 19 19 19 19 19 20 19 20 19 13 18 20 23 23 21 22 23 24 24 24 21 17 15 16 18 18 18 16 16 16 17 20 21
33 33 29 28 27 26 25 23 22 21 20 19 20 22 23 21 21 18 14 17 21 25 22 21 18 18 20 20 20 20 17 14 11 13 17 17 17 15 17 17 17 19 19
33 34 30 29 28 27 26 23 22 22 21 21 23 24 24 22 21 18 19 22 22 22 22 21 19 20 19 20 18 18 18 15 14 15 16 17 16 15 16 17 17 17 18
33 35 30 29 28 27 26 25 23 22 22 23 24 26 24 21 21 21 23 23 22 20 21 20 19 20 22 20 19 16 13 14 19 19 17 17 16 15 15 15 15 17 18
30 35 31 30 28 28 27 26 24 24 24 25 25 25 23 22 23 24 25 24 23 22 21 20 20 19 20 19 17 16 15 16 20 21 21 17 14 15 15 14 15 16 16
27 34 33 32 30 29 28 27 27 27 28 28 24 24 23 24 25 25 25 23 21 21 21 21 20 20 19 18 14 12 14 16 19 20 20 16 13 14 13 13 14 14 12
27 32 33 33 32 32 31 29 28 27 26 25 24 22 23 24 27 27 24 21 20 21 21 19 20 19 17 18 15 12 11 13 18 21 22 15 14 13 11 12 12 10 10
32 33 34 33 34 34 32 31 29 28 28 27 25 23 24 25 24 24 22 19 18 17 16 18 19 20 20 19 18 18 18 18 17 20 20 16 13 13 12 11 9 8 9
33 33 36 35 34 33 33 31 30 31 29 26 24 26 27 26 26 25 24 20 19 18 18 18 17 14 12 14 16 18 18 15 15 15 15 14 12 11 11 9 8 8 8
38 36 35 34 34 33 33 33 34 35 32 30 28 27 24 24 24 23 21 19 18 17 18 18 17 14 11 11 11 10 9 6 6 9 12 12 13 9 9 7 7 6 6
38 38 37 36 36 35 35 34 33 33 35 32 29 24 20 20 18 16 15 16 16 15 15 17 16 14 12 11 11 11 12 9 9 8 7 5 6 12 13 3 3 4 5
38 39 38 39 34 36 35 33 34 38 36 32 28 22 20 18 15 13 12 13 13 13 15 15 15 13 13 12 12 11 10 10 9 8 9 8 4 4 5 13 7 4 6
39 41 41 37 33 32 38 37 37 37 34 30 25 21 20 18 15 12 11 11 11 11 14 17 16 15 14 13 12 11 10 11 11 10 9 9 7 4 8 8 12 14 9
41 43 42 42 40 38 41 38 39 39 36 31 26 23 21 19 17 15 13 12 11 11 13 17 16 15 14 14 13 13 12 12 11 11 9 8 13 17 17 18 16 21 22
41 43 45 42 40 39 41 43 42 40 36 32 29 25 24 22 19 17 14 13 13 11 12 14 18 16 17 15 14 14 13 11 8 7 7 7 8 10 9 9 6 3 8
42 44 46 42 47 42 47 45 43 39 35 31 28 28 26 24 21 18 17 13 10 12 14 16 17 20 19 18 18 15 13 12 10 8 8 8 6 2 2 2 3 1 2
39 47 43 43 41 45 48 48 46 40 35 33 31 27 25 22 21 19 18 18 12 6 10 15 18 19 20 19 17 15 12 10 9 9 8 8 10 11 9 9 7 3 4
40 41 41 42 43 42 50 45 46 41 39 36 33 31 27 25 22 20 18 16 14 8 12 17 17 19 19 20 17 14 10 8 9 8 8 8 9 9 10 11 12 13 11
41 42 42 40 39 43 48 46 42 43 36 41 36 33 30 25 22 23 19 16 14 11 10 14 17 17 17 19 17 10 7 7 12 8 8 7 7 7 8 9 11 13 13
39 40 40 40 48 40 40 36 38 37 43 39 38 33 30 29 27 23 21 18 16 15 14 13 13 14 13 16 18 16 9 6 9 8 9 7 7 6 7 8 8 8 9
31 35 38 40 43 40 45 41 37 37 31 34 34 32 33 29 25 23 22 21 20 19 17 16 15 13 14 16 17 16 14 10 8 6 8 9 8 7 6 6 6 7 7
31 33 36 37 39 38 47 40 37 40 40 33 36 36 32 29 27 26 25 24 21 20 17 15 14 14 14 15 15 16 15 14 13 11 8 10 8 7 6 7 6 8 7
Wind_Direction
157 165 159 156 153 150 152 146 140 136 132 129 127 125 123 123 122 119 117 115 113 114 114 118 122 122 117 109 106 109 109 107 104 101 102 103 104 105 103 98 95 90 89
157 165 160 156 152 154 155 147 141 138 136 131 131 129 127 125 124 122 119 116 113 111 113 116 117 116 114 113 111 106 103 101 101 102 102 102 99 102 100 97 93 91 91
164 163 159 153 152 157 154 149 145 143 138 132 132 132 130 130 128 127 121 118 112 109 110 115 118 119 115 110 105 100 98 97 99 103 106 102 100 103 99 93 92 91 95
162 162 157 152 154 156 154 151 147 143 138 136 135 134 132 130 131 129 125 121 116 105 106 107 114 118 117 114 110 103 100 102 99 102 102 104 103 101 94 90 83 87 93
163 160 155 154 155 154 153 152 148 145 142 139 138 136 131 127 127 134 136 138 135 137 109 100 107 117 120 116 111 107 107 105 96 96 102 99 96 98 98 96 85 90 90
163 160 154 156 156 154 154 154 151 149 146 140 141 137 131 127 124 130 124 131 138 143 136 118 103 112 116 114 111 113 113 114 112 105 105 100 98 100 101 99 96 95 89
163 160 158 159 158 156 155 156 154 151 146 144 142 137 130 120 122 125 130 124 124 124 134 134 126 118 117 112 105 107 106 104 94 112 113 100 97 100 105 103 101 98 92
162 163 161 162 159 158 158 157 156 153 150 149 145 139 132 125 124 122 127 126 125 128 134 134 136 128 124 124 118 119 123 110 109 105 111 103 97 103 110 101 100 103 100
166 166 164 164 161 160 160 158 158 154 152 150 150 146 138 129 129 126 126 128 127 125 123 120 123 127 131 124 121 116 118 118 109 100 96 101 104 103 105 102 103 105 104
171 170 168 166 165 163 161 162 162 161 161 162 157 152 146 138 137 138 138 136 134 130 126 122 119 128 136 130 124 119 120 112 116 109 97 93 101 108 106 106 107 105 102
177 177 172 169 168 168 165 167 169 170 168 163 158 155 149 142 144 145 142 139 135 133 130 123 120 118 125 130 132 129 134 117 117 106 95 91 95 99 109 108 109 103 98
176 180 177 175 173 172 170 171 172 170 170 166 166 163 152 147 145 140 137 137 135 137 135 136 126 119 112 111 118 126 115 108 103 98 94 93 92 93 98 100 104 105 103
177 178 181 182 176 175 174 172 172 172 172 168 160 155 152 151 147 145 144 142 140 143 145 145 138 137 125 114 113 114 108 100 93 91 88 88 84 91 97 101 104 106 110
178 181 182 182 177 178 172 173 170 169 170 164 157 157 159 161 156 154 152 149 147 144 148 152 150 139 136 127 128 137 128 114 111 90 89 76 80 96 90 91 104 112 123
182 183 186 184 180 177 175 173 172 170 163 159 157 158 155 156 157 159 159 154 149 149 147 151 156 150 145 134 137 139 127 126 112 109 111 99 83 80 81 106 141 142 139
187 186 185 185 186 176 177 176 174 163 164 162 160 158 156 150 145 155 162 158 159 159 156 154 154 154 150 147 145 132 127 123 121 127 114 105 91 62 68 83 112 145 186
190 187 188 189 187 180 175 174 171 169 166 165 164 164 165 161 155 158 157 161 163 164 161 153 151 152 153 145 139 138 132 118 111 107 107 108 87 65 101 92 106 86 137
193 193 187 186 185 182 177 178 176 172 170 172 171 167 163 158 160 163 163 156 153 163 168 164 162 164 158 155 155 140 124 118 102 97 90 107 129 115 103 107 114 97 82
192 186 186 184 181 183 179 178 177 175 174 174 173 172 168 165 164 161 160 162 161 167 171 176 169 173 171 166 160 146 143 141 142 130 129 132 130 113 118 125 93 101 91
191 187 199 191 190 189 182 181 183 180 178 176 175 174 167 170 165 164 157 153 153 176 179 182 186 175 181 184 175 161 160 163 161 163 171 180 205 210 144 238 217 235 105
197 190 192 187 193 200 186 185 180 180 179 175 174 172 173 172 172 172 168 156 156 172 193 191 192 190 184 183 190 177 172 176 179 184 190 202 214 224 230 205 208 209 186
197 202 192 208 198 203 185 192 189 183 177 177 175 175 178 179 181 176 171 162 155 182 197 200 200 196 196 192 191 181 175 185 197 203 209 206 217 223 228 224 223 227 218
196 200 207 205 203 200 186 194 190 178 177 172 176 180 174 184 183 177 172 171 164 161 180 192 197 198 201 196 195 185 180 200 188 192 201 202 213 223 233 234 235 231 229
195 198 205 204 207 194 190 208 203 188 179 182 181 180 184 184 185 183 180 173 170 164 170 178 193 197 209 208 198 202 203 190 183 186 206 206 209 213 228 232 234 237 234
191 200 204 206 204 210 200 207 200 196 188 183 183 185 187 182 192 186 185 186 180 174 174 180 186 193 208 212 211 209 210 208 202 189 188 201 212 213 230 247 253 250 243
194 201 206 210 203 207 212 196 200 198 187 192 186 183 186 191 192 192 194 190 185 181 180 187 188 193 202 209 215 220 221 215 217 212 198 192 201 205 212 237 241 254 253
Height
1511 1515 1519 1524 1527 1530 1533 1536 1539 1542 1544 1546 1548 1549 1551 1552 1554 1556 1559 1560 1561 1563 1564 1565 1566 1568 1569 1571 1572 1573 1574 1574 1575 1576 1576 1578 1579 1580 1581 1581 1582 1582 1582
1508 1514 1518 1523 1527 1530 1533 1537 1540 1542 1545 1546 1549 1550 1552 1554 1556 1558 1561 1562 1563 1565 1566 1568 1569 1570 1572 1574 1574 1575 1576 1577 1578 1579 1580 1581 1582 1583 1585 1585 1585 1586 1586
1508 1513 1518 1523 1527 1531 1534 1537 1540 1543 1545 1547 1550 1552 1553 1555 1557 1560 1562 1564 1565 1567 1569 1570 1572 1573 1575 1576 1577 1578 1579 1580 1581 1583 1584 1584 1586 1587 1588 1588 1588 1589 1589
1508 1513 1518 1523 1526 1531 1535 1538 1541 1543 1546 1548 1550 1552 1554 1557 1559 1562 1564 1566 1567 1570 1572 1574 1575 1575 1577 1578 1579 1580 1582 1582 1584 1586 1586 1587 1588 1590 1590 1590 1590 1591 1591
1508 1514 1518 1522 1526 1530 1535 1539 1542 1544 1547 1549 1551 1553 1556 1558 1560 1564 1566 1566 1567 1569 1573 1578 1579 1579 1579 1581 1582 1583 1585 1586 1588 1589 1589 1590 1590 1592 1593 1593 1593 1594 1594
1508 1514 1519 1523 1527 1530 1536 1539 1542 1545 1548 1550 1552 1554 1557 1559 1562 1564 1567 1568 1570 1570 1573 1577 1580 1582 1583 1584 1585 1586 1588 1589 1590 1591 1592 1593 1594 1595 1594 1596 1597 1597 1596
1508 1514 1518 1523 1527 1530 1535 1539 1543 1545 1548 1551 1554 1556 1558 1560 1563 1565 1568 1571 1573 1574 1577 1580 1583 1584 1585 1586 1587 1588 1589 1591 1592 1593 1594 1595 1596 1596 1597 1599 1599 1600 1600
1508 1513 1519 1522 1527 1531 1535 1539 1543 1546 1549 1552 1555 1558 1560 1562 1564 1567 1570 1573 1575 1577 1579 1582 1584 1586 1587 1588 1590 1592 1592 1593 1593 1595 1596 1597 1598 1599 1600 1601 1602 1602 1603
1509 1513 1518 1523 1527 1531 1535 1539 1543 1547 1550 1554 1556 1558 1561 1563 1566 1569 1572 1575 1577 1579 1581 1583 1585 1588 1590 1590 1593 1594 1594 1595 1596 1597 1598 1599 1601 1601 1602 1603 1604 1605 1606
1510 1514 1517 1522 1526 1530 1535 1539 1542 1546 1549 1551 1555 1558 1561 1564 1566 1570 1574 1576 1578 1581 1583 1585 1587 1590 1592 1593 1594 1597 1597 1597 1598 1599 1600 1602 1603 1604 1604 1605 1606 1607 1608
1511 1514 1517 1520 1524 1528 1533 1538 1542 1546 1549 1553 1557 1560 1562 1565 1568 1571 1574 1577 1580 1583 1586 1588 1589 1591 1594 1595 1597 1598 1600 1601 1601 1601 1601 1605 1605 1605 1606 1607 1608 1610 1610
1507 1512 1516 1519 1522 1526 1532 1537 1541 1546 1549 1553 1556 1561 1563 1566 1570 1573 1576 1579 1582 1584 1587 1590 1592 1594 1596 1598 1598 1600 1602 1604 1604 1603 1603 1606 1607 1607 1608 1609 1610 1611 1612
1503 1509 1512 1516 1522 1526 1530 1536 1540 1545 1549 1553 1557 1560 1564 1567 1570 1573 1576 1580 1583 1586 1588 1591 1593 1596 1598 1599 1601 1602 1603 1606 1606 1606 1607 1608 1609 1610 1610 1611 1612 1613 1613
1500 1504 1510 1515 1520 1526 1530 1534 1538 1543 1547 1552 1557 1560 1563 1566 1570 1573 1577 1580 1584 1586 1589 1592 1594 1596 1598 1601 1602 1604 1605 1607 1608 1609 1610 1610 1611 1611 1612 1613 1613 1614 1615
1498 1503 1508 1513 1518 1523 1529 1534 1539 1543 1548 1553 1557 1561 1564 1567 1571 1574 1577 1581 1584 1587 1590 1592 1595 1597 1599 1601 1603 1605 1606 1608 1609 1610 1611 1613 1613 1613 1613 1614 1615 1615 1615
1497 1501 1506 1511 1517 1521 1528 1533 1538 1543 1548 1553 1557 1562 1565 1568 1571 1574 1578 1581 1584 1587 1590 1593 1596 1598 1601 1603 1605 1606 1608 1609 1610 1612 1612 1614 1615 1615 1615 1616 1615 1616 1615
1495 1498 1504 1510 1516 1521 1527 1532 1537 1543 1548 1553 1557 1562 1566 1569 1571 1574 1578 1582 1584 1587 1590 1593 1596 1599 1602 1604 1606 1607 1609 1611 1612 1614 1614 1615 1616 1617 1616 1616 1616 1617 1612
1492 1495 1502 1507 1513 1519 1525 1530 1536 1541 1546 1550 1555 1560 1564 1568 1571 1574 1577 1581 1584 1587 1590 1593 1596 1600 1602 1605 1607 1608 1611 1613 1614 1615 1615 1616 1617 1618 1618 1618 1619 1619 1619
1489 1492 1498 1504 1510 1517 1523 1528 1534 1539 1544 1549 1553 1557 1562 1567 1571 1573 1577 1580 1583 1587 1590 1592 1595 1599 1602 1605 1607 1609 1611 1613 1614 1616 1618 1619 1619 1620 1621 1621 1622 1623 1623
1486 1490 1496 1502 1509 1513 1519 1525 1531 1537 1542 1547 1551 1556 1560 1565 1570 1573 1576 1579 1582 1586 1588 1591 1595 1597 1600 1603 1605 1608 1610 1612 1613 1615 1617 1619 1620 1621 1622 1624 1625 1625 1625
1485 1489 1492 1499 1504 1509 1514 1518 1524 1531 1538 1544 1550 1555 1560 1565 1568 1572 1575 1577 1581 1585 1588 1590 1593 1597 1598 1602 1605 1608 1610 1612 1613 1614 1616 1618 1619 1620 1622 1624 1626 1625 1626
1482 1487 1491 1497 1501 1508 1512 1519 1525 1528 1533 1541 1547 1552 1558 1562 1567 1571 1574 1577 1579 1582 1586 1589 1591 1594 1597 1600 1603 1607 1610 1613 1612 1613 1614 1615 1616 1617 1619 1621 1623 1624 1625
1478 1483 1488 1495 1500 1505 1509 1515 1523 1525 1530 1533 1541 1548 1553 1560 1565 1569 1572 1575 1578 1581 1583 1587 1590 1593 1595 1598 1601 1605 1607 1609 1610 1612 1613 1614 1615 1616 1616 1618 1620 1621 1623
1473 1480 1486 1490 1496 1503 1510 1513 1520 1525 1526 1532 1537 1545 1550 1556 1562 1567 1570 1573 1576 1579 1582 1585 1588 1591 1594 1597 1600 1603 1604 1605 1607 1610 1611 1612 1613 1614 1615 1616 1618 1619 1619
1472 1478 1482 1487 1492 1498 1502 1510 1514 1518 1523 1526 1535 1542 1548 1554 1559 1563 1568 1572 1575 1577 1580 1583 1586 1589 1592 1595 1597 1599 1601 1603 1605 1606 1608 1610 1611 1611 1612 1614 1616 1616 1617
1469 1475 1480 1485 1488 1493 1499 1504 1509 1515 1517 1524 1532 1539 1544 1550 1555 1562 1565 1570 1574 1576 1578 1582 1584 1587 1590 1593 1595 1596 1598 1600 1601 1604 1605 1607 1609 1610 1610 1611 1613 1613 1614